This is the latest recevied weather packets stored in our database for station/object F4IEI-10. If no packets are shown the sender has not sent any weather packets the latest 10 day(s).
| Time | Temp. | Humidity | Pressure | Rain* | Wind** | Luminosity | Snow |
|---|---|---|---|---|---|---|---|
| 1777922920 | 12.22° C | 100% | 1012.4 hPa | - | - | - | - |
| 1777922020 | 12.22° C | 100% | 1012.3 hPa | - | - | - | - |
| 1777921120 | 12.22° C | 100% | 1012.2 hPa | - | - | - | - |
| 1777920227 | 12.22° C | 100% | 1012.2 hPa | - | - | - | - |
| 1777919320 | 13.89° C | 100% | 1012.2 hPa | - | - | - | - |
| 1777918420 | 15° C | 98% | 1012.2 hPa | - | - | - | - |
| 1777917520 | 15° C | 100% | 1012 hPa | - | - | - | - |
| 1777916620 | 15° C | 100% | 1012 hPa | - | - | - | - |
| 1777915720 | 15.56° C | 100% | 1011.9 hPa | - | - | - | - |
| 1777914820 | 16.11° C | 100% | 1011.8 hPa | - | - | - | - |
| 1777913920 | 16.11° C | 100% | 1011.9 hPa | - | - | - | - |
| 1777913021 | 15.56° C | 100% | 1011.8 hPa | - | - | - | - |
| 1777912121 | 15.56° C | 100% | 1011.9 hPa | - | - | - | - |
| 1777911222 | 17.22° C | 93% | 1011.8 hPa | - | - | - | - |
| 1777910321 | 18.33° C | 83% | 1011.7 hPa | - | - | - | - |
| 1777909421 | 18.33° C | 86% | 1011.8 hPa | - | - | - | - |
| 1777908521 | 18.33° C | 86% | 1011.9 hPa | - | - | - | - |
| 1777907622 | 18.33° C | 87% | 1011.9 hPa | - | - | - | - |
| 1777906728 | 17.78° C | 86% | 1011.9 hPa | - | - | - | - |
| 1777905822 | 17.78° C | 89% | 1012 hPa | - | - | - | - |
| 1777904921 | 17.78° C | 88% | 1012.1 hPa | - | - | - | - |
| 1777904021 | 18.89° C | 84% | 1012.3 hPa | - | - | - | - |
| 1777903121 | 19.44° C | 88% | 1012.3 hPa | - | - | - | - |
| 1777902221 | 18.33° C | 87% | 1012.4 hPa | - | - | - | - |
| 1777901321 | 17.78° C | 85% | 1012.5 hPa | - | - | - | - |
* Rain since midnight (hover to see other rain measurements)
** Current wind speed in m/s (hover to see current wind gust speed)